TimeAKST,TemperatureF,Dew PointF,Humidity,Sea Level PressureIn,VisibilityMPH,Wind Direction,Wind SpeedMPH,Gust SpeedMPH,PrecipitationIn,Events,Conditions,WindDirDegrees,DateUTC
12:53 AM,28.0,26.1,92,29.66,10.0,Calm,Calm,-,N/A,,Overcast,0,2012-12-18 09:53:00
1:53 AM,27.0,25.0,92,29.67,10.0,Calm,Calm,-,N/A,,Overcast,0,2012-12-18 10:53:00
2:07 AM,28.4,26.6,93,29.67,10.0,Calm,Calm,-,N/A,,Overcast,0,2012-12-18 11:07:00
2:35 AM,28.4,26.6,93,29.67,10.0,Calm,Calm,-,N/A,,Overcast,0,2012-12-18 11:35:00
3:53 AM,30.0,28.0,92,29.68,10.0,Calm,Calm,-,N/A,,Overcast,0,2012-12-18 12:53:00
4:53 AM,28.0,26.1,92,29.68,10.0,Calm,Calm,-,N/A,,Overcast,0,2012-12-18 13:53:00
5:33 AM,26.6,24.8,93,29.67,10.0,Calm,Calm,-,N/A,,Overcast,0,2012-12-18 14:33:00
5:53 AM,28.0,26.1,92,29.68,10.0,Calm,Calm,-,N/A,,Overcast,0,2012-12-18 14:53:00
6:06 AM,28.4,26.6,93,29.67,10.0,Calm,Calm,-,N/A,,Overcast,0,2012-12-18 15:06:00
6:53 AM,23.0,21.9,96,29.67,10.0,Calm,Calm,-,N/A,,Scattered Clouds,0,2012-12-18 15:53:00
7:09 AM,24.8,24.8,100,29.66,10.0,Calm,Calm,-,N/A,,Mostly Cloudy,0,2012-12-18 16:09:00
7:53 AM,23.0,21.9,96,29.66,10.0,Calm,Calm,-,N/A,,Mostly Cloudy,0,2012-12-18 16:53:00
8:53 AM,27.0,25.0,92,29.66,10.0,Calm,Calm,-,N/A,,Mostly Cloudy,0,2012-12-18 17:53:00
9:53 AM,28.9,28.0,96,29.64,10.0,Calm,Calm,-,N/A,,Mostly Cloudy,0,2012-12-18 18:53:00
10:53 AM,32.0,28.9,88,29.63,10.0,Calm,Calm,-,N/A,,Overcast,0,2012-12-18 19:53:00
11:53 AM,32.0,28.0,85,29.60,10.0,Calm,Calm,-,N/A,,Mostly Cloudy,0,2012-12-18 20:53:00
12:53 PM,32.0,27.0,82,29.57,10.0,South,5.8,-,N/A,,Mostly Cloudy,170,2012-12-18 21:53:00
1:53 PM,33.1,26.1,75,29.53,10.0,South,6.9,23.0,N/A,,Mostly Cloudy,170,2012-12-18 22:53:00
2:53 PM,34.0,26.1,73,29.50,10.0,SE,15.0,25.3,N/A,,Overcast,140,2012-12-18 23:53:00
3:53 PM,34.0,27.0,75,29.47,10.0,SE,19.6,31.1,N/A,,Overcast,140,2012-12-19 00:53:00
4:53 PM,34.0,26.1,73,29.44,10.0,SE,17.3,26.5,N/A,,Overcast,130,2012-12-19 01:53:00
5:53 PM,35.1,26.1,70,29.41,10.0,ESE,20.7,31.1,N/A,,Overcast,120,2012-12-19 02:53:00
6:53 PM,35.1,26.1,70,29.38,10.0,SE,13.8,20.7,N/A,,Overcast,140,2012-12-19 03:53:00
7:53 PM,35.1,26.1,70,29.35,10.0,SE,18.4,26.5,N/A,,Overcast,140,2012-12-19 04:53:00
8:53 PM,36.0,26.1,67,29.31,10.0,ESE,18.4,26.5,0.00,,Overcast,120,2012-12-19 05:53:00
9:53 PM,36.0,26.1,67,29.28,10.0,ESE,19.6,29.9,N/A,,Overcast,120,2012-12-19 06:53:00
10:53 PM,35.1,27.0,72,29.25,10.0,SE,17.3,24.2,N/A,,Overcast,130,2012-12-19 07:53:00
11:53 PM,37.0,25.0,62,29.20,10.0,ESE,18.4,28.8,0.00,,Overcast,120,2012-12-19 08:53:00